Flag for Germany Weather past 2 weeks in Dannenberg, Lower Saxony, Germany

Now
75 °F

Passing clouds.


Feels Like: 78 °F
Forecast: 55 / 86 °F
Wind: 9 mph from West

Location: Mecklenburg-Vorpommern - Parchim

Current Time: Aug 2, 2015 at 1:08:39 PM

Latest Report: Aug 2, 2015 at 12:20 PM


Visibility: N/A

Pressure: 30.12 "Hg

Humidity: 50%

Dew point: 55 °F

Location of DannenbergLocation

Historic Weather in Dannenberg — Graph

°F

Dannenberg temperature yesterday

Maximum temperature yesterday: 72 °F (at 3:20 PM)
Minimum temperature yesterday: 43 °F (at 6:50 AM)
Average temperature yesterday: 64 °F

Past Weeks' High & Low Weather Summary

 TemperatureHumidityPressure
High82 °F (Jul 22, 3:20 PM)100% (Jul 19, 4:50 AM)30.12 "Hg (Jul 19, 4:50 AM)
Low43 °F (Aug 1, 6:50 AM)36% (Jul 24, 3:20 PM)29.45 "Hg (Jul 25, 3:50 PM)
Average65 °F69%29.83 "Hg
* Reported Jul 18 11:20 AM — Aug 2 11:50 AM, Dannenberg, Weather by CustomWeather, © 2015

Note: Actual official high and low records may vary slightly from our data, if they occured in-between our weather recording intervals... More about our weather records

Advertising

Dannenberg weather history for previous 24 hours

 ConditionsComfort  
Time TempWeatherWind HumidityBarometerVisibility
11:50 AM
Sun, Aug 2
73 °FPassing clouds.7 mph53%30.12 "HgN/A
11:20 AM73 °FSunny.3 mph53%30.09 "Hg10 mi
10:50 AM70 °FPassing clouds.5 mph57%30.09 "HgN/A
10:20 AM70 °FPassing clouds.6 mph57%30.09 "HgN/A
9:50 AM68 °FPassing clouds.7 mph60%30.09 "HgN/A
8:50 AM64 °FSunny.1 mph68%30.09 "Hg10 mi
8:20 AM61 °FSunny.2 mph83%30.07 "Hg10 mi
7:50 AM57 °FSunny.1 mph88%30.07 "Hg10 mi
7:20 AM54 °FSunny.1 mph94%30.07 "Hg10 mi
6:50 AM50 °FSunny.1 mph100%30.07 "Hg10 mi
6:20 AM50 °FFog.1 mph94%30.07 "Hg2 mi
6:50 PM
Sat, Aug 1
72 °FSunny.2 mph47%30.01 "Hg10 mi
6:20 PM72 °FSunny.5 mph44%30.01 "Hg10 mi
5:50 PM72 °FPassing clouds.3 mph41%30.01 "HgN/A
5:20 PM72 °FPassing clouds.6 mph41%30.01 "HgN/A
4:50 PM72 °FPassing clouds.7 mph38%30.01 "HgN/A
4:20 PM72 °FPassing clouds.5 mph38%30.01 "HgN/A
3:50 PM72 °FSunny.6 mph38%30.04 "Hg10 mi
3:20 PM72 °FPassing clouds.7 mph41%30.04 "HgN/A
2:50 PM70 °FPassing clouds.8 mph43%30.04 "HgN/A
2:20 PM70 °FSunny.5 mph40%30.04 "Hg10 mi
1:50 PM68 °FSunny.6 mph46%30.07 "Hg10 mi
1:20 PM68 °FSunny.2 mph46%30.07 "Hg10 mi
Weather by CustomWeather, © 2015

See weather overviewHow to use our weather pages